Погода в Шри Ганганагаре

Индия     29°54′51″N   73°52′47″E
темп.,
°C
ветер,
м/с
пор.,
м/с
влажн.,
%
обл.,
%
осадки,
мм/ч
давл.,
гПа
погр.,
м
28 сентября, вт
вт2823:30+30юв34570 0.0 1006116
02:30+29юв346015 0.0 100676
05:30+29вюв226247 0.0 100652
08:30+29всв2263100 0.2 1008134
11:30+31ююз1160100 0.6 1008378
14:30+37вюв233533 0.0 10042582
17:30+35вюв45395 0.1 1004776
20:30+31в34518 0.2 100691
29 сентября, ср
ср2923:30+30юв37565 0.2 1006144
02:30+29вюв24625 0.0 100693
05:30+28вюв22685 0.0 100628
08:30+31в23592 0.0 1008312
11:30+35вюв334216 0.0 10082012
14:30+38вюв333374 0.0 10042832
17:30+35вюв354069 0.1 1004428
20:30+32вюв48500 0.0 1006210
30 сентября, чт
чт3023:30+31юв37540 0.0 1006180
02:30+30юв24580 0.0 100699
05:30+29в22620 0.0 100634
08:30+32в22540 0.0 1008294
11:30+36юв333947 0.0 10082437
14:30+36в433940 0.0 10051210
17:30+36юв34380 0.0 1004846
20:30+32ююв37483 0.0 1006177
1 октября, пт
пт123:30+30ююв35549 0.0 1006129
02:30+29юв235992 0.0 100642
05:30+29юв336412 0.0 100661
08:30+32юв235550 0.0 1008320
11:30+36ююв22408 0.0 10081977
14:30+38вюв2231100 0.0 10043092
17:30+37вюв343126 0.0 1004328
20:30+32юв344776 0.0 100681
2 октября, сб
сб223:30+32ю235044 0.0 100657
02:30+31юз225268 0.0 100533
05:30+30юз115720 0.0 100612
08:30+32в215218 0.2 1007295
11:30+36ююз223914 0.2 10061843
14:30+38юз2232100 0.0 10032907
17:30+34ссв3543100 0.3 1003265
20:30+27в5878100 2.9 1006232